Weather History for Imperial, CA

Change the Weather History Date:

Friday, August 31, 2012

  Actual Average Record
Temperature  
Mean Temperature 90 °F -  
Max Temperature 102 °F 104 °F 116 °F (1950)
Min Temperature 79 °F 76 °F 61 °F (1953)
Cooling Degree Days 26    
Growing Degree Days 40 (Base 50)    
Moisture  
Dew Point 69 °F    
Average Humidity 51    
Maximum Humidity 77    
Minimum Humidity 29    
Precipitation  
Precipitation 0.00 in - - ()
Sea Level Pressure  
Sea Level Pressure 29.77 in    
Wind  
Wind Speed 5 mph (SSW)    
Max Wind Speed 10 mph    
Max Gust Speed -    
Visibility 10 miles    
Events      
Averages and records for this station are not official NWS values.
T = Trace of Precipitation, MM = Missing Value Source: NWS Daily Summary

Daily Weather History Graph

Daily Weather History Graph

Search for Another Location

Airport:

Trip Planner

Search our weather history database for the weather conditions in past years. The results will help you decide how hot, cold, wet, or windy it might be!

Date:

Astronomy

Aug. 31, 2012 Rise Set
Actual Time 6:16 AM PDT 7:07 PM PDT
Civil Twilight 5:51 AM PDT 7:32 PM PDT
Nautical Twilight 5:21 AM PDT 8:02 PM PDT
Astronomical Twilight 4:51 AM PDT 8:32 PM PDT
Moon 7:01 PM PDT (8/31) 6:22 AM PDT (8/31)
Length of Visible Light 13h 41m
Length of Day
12h 50m
Full, 100% of the Moon is Illuminated
Aug 31
Full
Sep 8
Last Quarter
Sep 15
New
Sep 22
First Quarter
Sep 29
Full

Hourly Weather History & Observations

Time (PDT) Temp. Heat Index Dew Point Humidity Pressure Visibility Wind Dir Wind Speed Gust Speed Precip Events Conditions
12:53 AM 84.0 °F 87.8 °F 69.1 °F 61% 29.76 in 10.0 mi South 4.6 mph - N/A   Clear
1:53 AM 80.1 °F 83.2 °F 70.0 °F 71% 29.74 in 10.0 mi West 3.5 mph - N/A   Clear
2:53 AM 81.0 °F 84.4 °F 70.0 °F 69% 29.75 in 10.0 mi NNE 4.6 mph - N/A   Clear
3:53 AM 80.1 °F 83.2 °F 70.0 °F 71% 29.75 in 10.0 mi Calm Calm - N/A   Clear
4:53 AM 79.0 °F - 71.1 °F 77% 29.77 in 10.0 mi ESE 4.6 mph - N/A   Clear
5:53 AM 80.1 °F 83.6 °F 71.1 °F 74% 29.78 in 10.0 mi Calm Calm - N/A   Clear
6:53 AM 80.1 °F 83.6 °F 71.1 °F 74% 29.81 in 10.0 mi Calm Calm - N/A   Clear
7:53 AM 84.0 °F 91.2 °F 73.9 °F 72% 29.82 in 10.0 mi SSE 9.2 mph - N/A   Clear
8:53 AM 86.0 °F 93.0 °F 73.0 °F 65% 29.83 in 10.0 mi South 4.6 mph - N/A   Clear
9:53 AM 91.0 °F 99.3 °F 73.0 °F 55% 29.84 in 10.0 mi Variable 5.8 mph - N/A   Clear
10:53 AM 91.9 °F 99.5 °F 72.0 °F 52% 29.84 in 10.0 mi Variable 4.6 mph - N/A   Clear
11:53 AM 93.9 °F 100.3 °F 70.0 °F 46% 29.82 in 10.0 mi West 5.8 mph - N/A   Clear
12:53 PM 96.1 °F 102.9 °F 70.0 °F 43% 29.80 in 10.0 mi South 4.6 mph - N/A   Clear
1:53 PM 99.0 °F 105.5 °F 69.1 °F 38% 29.78 in 10.0 mi Variable 5.8 mph - N/A   Clear
2:53 PM 100.0 °F 104.9 °F 66.9 °F 34% 29.75 in 10.0 mi SSE 8.1 mph - N/A   Clear
3:53 PM 100.9 °F 106.0 °F 66.9 °F 33% 29.73 in 10.0 mi Calm Calm - N/A   Clear
4:53 PM 102.0 °F 107.3 °F 66.9 °F 32% 29.71 in 10.0 mi SW 8.1 mph - N/A   Clear
5:53 PM 100.9 °F 105.3 °F 66.0 °F 32% 29.71 in 10.0 mi WSW 4.6 mph - N/A   Clear
6:53 PM 100.0 °F 104.9 °F 66.9 °F 34% 29.70 in 10.0 mi Variable 6.9 mph - N/A   Clear
7:53 PM 99.0 °F 104.2 °F 68.0 °F 36% 29.72 in 10.0 mi ESE 8.1 mph - N/A   Clear
8:53 PM 97.0 °F 102.8 °F 69.1 °F 40% 29.74 in 10.0 mi South 9.2 mph - N/A   Clear
9:53 PM 93.9 °F 100.3 °F 70.0 °F 46% 29.75 in 10.0 mi South 10.4 mph - N/A   Clear
10:53 PM 89.1 °F 92.1 °F 66.9 °F 48% 29.77 in 10.0 mi WNW 4.6 mph - N/A   Scattered Clouds
11:53 PM 88.0 °F - 52.0 °F 29% 29.77 in 10.0 mi West 6.9 mph - N/A   Clear